Regional Weather Roundup
Issued by NWS

Home | Current Version | Previous Version | Text Only | Print | Product List | Glossary Off
Versions: 1 2 3 4 5 6 7 8 9 10 11 12 13 14 15 16 17 18 19 20 21 22 23 24 25 26 27 28 29 30 31 32 33 34 35 36 37 38 39 40 41 42 43 44 45 46 47 48 49 50

000
ASUS43 KLSX 161507
RWRMO

WEATHER SUMMARY FOR MISSOURI
NATIONAL WEATHER SERVICE SPRINGFIELD MO
1000 AM CDT TUE SEP 16 2014

NOTE: "FAIR" INDICATES FEW OR NO CLOUDS BELOW 12,000 FEET WITH NO
       SIGNIFICANT WEATHER AND/OR OBSTRUCTIONS TO VISIBILITY.
       CURRENT SKY AND/OR WEATHER CONDITIONS ARE NOT AVAILABLE FOR
       CHILLICOTHE AND FARMINGTON.

MOZ001>031-035>038-043-044-053-054-161600-
...NORTHERN AND WESTERN MISSOURI...

CITY           SKY/WX    TMP DP  RH WIND       PRES   REMARKS
KANSAS CTY INT MOSUNNY   57  51  80 SE8       30.24S
KANSAS C DTWN  SUNNY     59  51  75 E5        30.24F
LEE`S SUMMIT   SUNNY     57  51  80 E5        30.25S
ST JOSEPH      SUNNY     57  50  77 SE3       30.25S
CHILLICOTHE      N/A     58  51  78 E5        30.27S
KIRKSVILLE     SUNNY     58  47  66 E6        30.26S

$$
MOZ066>068-077>081-088>096-101>105-161600-
...SOUTHWEST MISSOURI...

CITY           SKY/WX    TMP DP  RH WIND       PRES   REMARKS
SPRINGFIELD    CLOUDY    64  57  78 NE10      30.20R
JOPLIN         CLOUDY    59  58  96 NE7       30.21R FOG

$$
MOZ032>034-039>042-045>050-055>058-069>072-161600-
...CENTRAL MISSOURI...

CITY           SKY/WX    TMP DP  RH WIND       PRES   REMARKS
COLUMBIA       MOSUNNY   58  51  78 E5        30.24S
JEFFERSON CITY CLOUDY    59  51  75 E3        30.24S
ROLLA          CLOUDY    56  55  97 NE5       30.21S FOG
SEDALIA        CLOUDY    59  53  80 E6        30.24S
WHITEMAN AFB   PTSUNNY   59  52  77 VRB5      30.24R
OSAGE BEACH    CLOUDY    57  54  88 NE7       30.23S

$$
MOZ051-052-059>065-161600-
...EAST CENTRAL MISSOURI...

CITY           SKY/WX    TMP DP  RH WIND       PRES   REMARKS
ST LOUIS INTL  CLOUDY    61  54  77 CALM      30.23S
SPIRIT OF STL  CLOUDY    60  55  83 NE3       30.22S
ST CHARLES     CLOUDY    58  53  84 NE3       30.23R

$$
MOZ072>076-082>087-097>100-106>115-161600-
...SOUTH CENTRAL AND SOUTHEAST MISSOURI...

CITY           SKY/WX    TMP DP  RH WIND       PRES   REMARKS
CAPE GIRARDEAU CLOUDY    63  55  75 N12       30.20R
FARMINGTON     CLOUDY    57  54  88 NE8       30.24S
POPLAR BLUFF   CLOUDY    63  54  72 NE8       30.18R
WEST PLAINS    CLOUDY    64  56  75 E7        30.21S

$$


USA.gov is the U.S. government's official web portal to all federal, state and local government web resources and services.